Location: Friedrichshafen
(47.6598°N, 9.4819°E)
Time: 01:19:19
(UTC+01:00)

ISS - Pass Details

Date: 12 November 2017
Orbit: 402 x 407 km, 51.6° (Epoch: 20 November)

Event Time Altitude Azimuth Distance (km) Brightness Sun altitude
Exits shadow 04:20:03 12° 69° (ENE) 1,370 -0.3 -30.8°
Drops below altitude 10° 04:20:17 10° 71° (ENE) 1,458 -0.2 -30.7°
Sets 04:22:27 0° 79° (E) 2,317 1.2 -30.4°
